• In Österreich
  • Länderverzeichnis
  • Für 7 Tage
  • Wassertemperatur
  • Satellitenkarten
  • Wetterkarte
  • News
  • Widgets
  • user-avatar
    Anmelden

    Stündliche Wetter Koudougou

    Heute, 21 Oktober, Samstag

    Zeit Temperatur Niederschläge Wind Luftdruck Luftfeuchtigkeit
    00:00 +28°C° 0 mm 2 m/S 733 mmHg 22%
    01:00 +27°C° 0 mm 2 m/S 733 mmHg 22%
    02:00 +27°C° 0 mm 2 m/S 733 mmHg 23%
    03:00 +27°C° 0 mm 2 m/S 732 mmHg 24%
    04:00 +26°C° 0 mm 2 m/S 733 mmHg 26%
    05:00 +26°C° 0 mm 2 m/S 733 mmHg 27%
    06:00 +25°C° 0 mm 2 m/S 733 mmHg 29%
    07:00 +28°C° 0 mm 2 m/S 733 mmHg 28%
    08:00 +31°C° 0 mm 3 m/S 734 mmHg 26%
    09:00 +34°C° 0 mm 3 m/S 734 mmHg 25%
    10:00 +36°C° 0 mm 3 m/S 734 mmHg 21%
    11:00 +38°C° 0 mm 3 m/S 734 mmHg 18%
    12:00 +40°C° 0 mm 3 m/S 733 mmHg 14%
    13:00 +42°C° 0 mm 3 m/S 733 mmHg 12%
    14:00 +43°C° 0 mm 4 m/S 732 mmHg 11%
    15:00 +43°C° 0 mm 4 m/S 731 mmHg 9%
    16:00 +41°C° 0 mm 4 m/S 731 mmHg 10%
    17:00 +38°C° 0 mm 3 m/S 731 mmHg 12%
    18:00 +36°C° 0 mm 2 m/S 731 mmHg 13%
    19:00 +34°C° 0 mm 3 m/S 732 mmHg 13%
    20:00 +33°C° 0 mm 3 m/S 732 mmHg 14%
    21:00 +31°C° 0 mm 3 m/S 733 mmHg 15%
    22:00 +30°C° 0 mm 2 m/S 733 mmHg 16%
    23:00 +29°C° 0 mm 2 m/S 733 mmHg 17%

    Morgen, 22 Oktober, Sonntag

    Zeit Temperatur Niederschläge Wind Luftdruck Luftfeuchtigkeit
    00:00 +28°C° 0 mm 2 m/S 733 mmHg 18%
    01:00 +28°C° 0 mm 2 m/S 732 mmHg 19%
    02:00 +27°C° 0 mm 2 m/S 732 mmHg 19%
    03:00 +27°C° 0 mm 2 m/S 732 mmHg 19%
    04:00 +26°C° 0 mm 2 m/S 732 mmHg 20%
    05:00 +26°C° 0 mm 2 m/S 732 mmHg 20%
    06:00 +25°C° 0 mm 2 m/S 732 mmHg 20%
    07:00 +28°C° 0 mm 2 m/S 733 mmHg 19%
    08:00 +31°C° 0 mm 2 m/S 733 mmHg 18%
    09:00 +35°C° 0 mm 3 m/S 734 mmHg 17%
    10:00 +37°C° 0 mm 2 m/S 734 mmHg 15%
    11:00 +38°C° 0 mm 2 m/S 733 mmHg 13%
    12:00 +40°C° 0 mm 1 m/S 733 mmHg 11%
    13:00 +41°C° 0 mm 2 m/S 732 mmHg 10%
    14:00 +41°C° 0 mm 2 m/S 731 mmHg 9%
    15:00 +43°C° 0 mm 3 m/S 731 mmHg 8%
    16:00 +39°C° 0 mm 2 m/S 731 mmHg 9%
    17:00 +37°C° 0 mm 2 m/S 731 mmHg 9%
    18:00 +35°C° 0 mm 2 m/S 731 mmHg 10%
    19:00 +34°C° 0 mm 2 m/S 731 mmHg 11%
    20:00 +32°C° 0 mm 2 m/S 732 mmHg 11%
    21:00 +31°C° 0 mm 2 m/S 732 mmHg 11%
    22:00 +30°C° 0 mm 2 m/S 732 mmHg 14%
    23:00 +30°C° 0 mm 3 m/S 732 mmHg 16%

    übermorgen, 23 Oktober, Montag

    Zeit Temperatur Niederschläge Wind Luftdruck Luftfeuchtigkeit
    00:00 +29°C° 0 mm 3 m/S 732 mmHg 19%
    01:00 +28°C° 0 mm 2 m/S 732 mmHg 23%
    02:00 +27°C° 0 mm 2 m/S 731 mmHg 27%
    03:00 +26°C° 0 mm 2 m/S 731 mmHg 31%
    04:00 +26°C° 0 mm 2 m/S 731 mmHg 35%
    05:00 +26°C° 0 mm 2 m/S 731 mmHg 38%
    06:00 +25°C° 0 mm 2 m/S 731 mmHg 42%
    07:00 +28°C° 0 mm 3 m/S 732 mmHg 42%
    08:00 +32°C° 0 mm 4 m/S 733 mmHg 42%
    09:00 +34°C° 0 mm 5 m/S 733 mmHg 43%
    10:00 +36°C° 0 mm 4 m/S 733 mmHg 35%
    11:00 +38°C° 0 mm 3 m/S 732 mmHg 28%
    12:00 +40°C° 0 mm 2 m/S 732 mmHg 21%
    13:00 +40°C° 0 mm 2 m/S 731 mmHg 19%
    14:00 +41°C° 0 mm 1 m/S 730 mmHg 16%
    15:00 +42°C° 0 mm 1 m/S 730 mmHg 14%
    16:00 +40°C° 0 mm 1 m/S 730 mmHg 15%
    17:00 +36°C° 0 mm 1 m/S 730 mmHg 17%
    18:00 +34°C° 0 mm 1 m/S 730 mmHg 19%
    19:00 +33°C° 0 mm 1 m/S 730 mmHg 19%
    20:00 +34°C° 0 mm 2 m/S 731 mmHg 20%
    21:00 +32°C° 0 mm 2 m/S 731 mmHg 20%
    22:00 +31°C° 0 mm 2 m/S 731 mmHg 21%
    23:00 +30°C° 0 mm 2 m/S 731 mmHg 23%

    24 Oktober, Dienstag

    Zeit Temperatur Niederschläge Wind Luftdruck Luftfeuchtigkeit
    00:00 +29°C° 0 mm 2 m/S 731 mmHg 24%
    01:00 +29°C° 0 mm 2 m/S 731 mmHg 27%
    02:00 +28°C° 0 mm 2 m/S 730 mmHg 30%
    03:00 +28°C° 0 mm 2 m/S 730 mmHg 32%
    04:00 +28°C° 0 mm 2 m/S 730 mmHg 35%
    05:00 +27°C° 0 mm 3 m/S 730 mmHg 38%
    06:00 +27°C° 0 mm 3 m/S 731 mmHg 41%
    07:00 +30°C° 0 mm 4 m/S 731 mmHg 39%
    08:00 +33°C° 0 mm 4 m/S 732 mmHg 37%
    09:00 +36°C° 0 mm 5 m/S 732 mmHg 35%
    10:00 +37°C° 0 mm 4 m/S 732 mmHg 30%
    11:00 +39°C° 0 mm 3 m/S 731 mmHg 25%
    12:00 +40°C° 0 mm 2 m/S 731 mmHg 20%
    13:00 +41°C° 0 mm 2 m/S 730 mmHg 19%
    14:00 +42°C° 0 mm 1 m/S 729 mmHg 17%
    15:00 +39°C° 0 mm 0 m/S 729 mmHg 15%
    16:00 +37°C° 0 mm 0 m/S 729 mmHg 17%
    17:00 +37°C° 0 mm 1 m/S 729 mmHg 19%
    18:00 +36°C° 0 mm 1 m/S 729 mmHg 21%
    19:00 +35°C° 0 mm 1 m/S 730 mmHg 21%
    20:00 +35°C° 0 mm 1 m/S 730 mmHg 21%
    21:00 +35°C° 0 mm 2 m/S 731 mmHg 22%
    22:00 +34°C° 0 mm 2 m/S 731 mmHg 24%
    23:00 +33°C° 0 mm 1 m/S 731 mmHg 25%

    25 Oktober, Mittwoch

    Zeit Temperatur Niederschläge Wind Luftdruck Luftfeuchtigkeit
    00:00 +32°C° 0 mm 1 m/S 731 mmHg 27%
    01:00 +32°C° 0 mm 1 m/S 730 mmHg 29%
    02:00 +31°C° 0 mm 1 m/S 730 mmHg 32%
    03:00 +30°C° 0 mm 2 m/S 730 mmHg 34%
    04:00 +30°C° 0 mm 2 m/S 730 mmHg 37%
    05:00 +30°C° 0 mm 2 m/S 730 mmHg 39%
    06:00 +29°C° 0 mm 2 m/S 731 mmHg 42%
    07:00 +31°C° 0 mm 3 m/S 731 mmHg 38%
    08:00 +35°C° 0 mm 4 m/S 732 mmHg 35%
    09:00 +37°C° 0 mm 4 m/S 732 mmHg 31%
    10:00 +38°C° 0 mm 4 m/S 731 mmHg 28%
    11:00 +41°C° 0 mm 4 m/S 731 mmHg 26%
    12:00 +42°C° 0 mm 3 m/S 730 mmHg 23%
    13:00 +42°C° 0 mm 3 m/S 730 mmHg 23%
    14:00 +40°C° 0 mm 2 m/S 729 mmHg 23%
    15:00 +40°C° 0 mm 2 m/S 729 mmHg 22%
    16:00 +39°C° 0 mm 2 m/S 729 mmHg 25%
    17:00 +38°C° 0 mm 2 m/S 730 mmHg 28%
    18:00 +36°C° 0 mm 3 m/S 730 mmHg 30%
    19:00 +36°C° 0 mm 3 m/S 730 mmHg 33%
    20:00 +35°C° 0 mm 3 m/S 731 mmHg 35%
    21:00 +34°C° 0 mm 2 m/S 731 mmHg 37%
    22:00 +32°C° 0 mm 2 m/S 731 mmHg 39%
    23:00 +32°C° 0 mm 2 m/S 731 mmHg 41%

    26 Oktober, Donnerstag

    Zeit Temperatur Niederschläge Wind Luftdruck Luftfeuchtigkeit
    00:00 +31°C° 0 mm 2 m/S 731 mmHg 43%
    01:00 +31°C° 0 mm 3 m/S 731 mmHg 46%
    02:00 +31°C° 0 mm 3 m/S 731 mmHg 49%
    03:00 +30°C° 0 mm 3 m/S 731 mmHg 52%
    04:00 +30°C° 0 mm 3 m/S 731 mmHg 55%
    05:00 +29°C° 0 mm 3 m/S 731 mmHg 59%
    06:00 +29°C° 0 mm 2 m/S 732 mmHg 62%
    07:00 +30°C° 0 mm 3 m/S 732 mmHg 56%
    08:00 +33°C° 0 mm 3 m/S 732 mmHg 51%
    09:00 +35°C° 0 mm 4 m/S 733 mmHg 45%
    10:00 +36°C° 0 mm 3 m/S 732 mmHg 40%
    11:00 +38°C° 0 mm 3 m/S 731 mmHg 35%
    12:00 +39°C° 0 mm 2 m/S 731 mmHg 30%
    13:00 +40°C° 0 mm 2 m/S 730 mmHg 27%
    14:00 +42°C° 0 mm 3 m/S 730 mmHg 24%
    15:00 +42°C° 0 mm 3 m/S 729 mmHg 22%
    16:00 +40°C° 0 mm 3 m/S 730 mmHg 25%
    17:00 +39°C° 0 mm 3 m/S 730 mmHg 27%
    18:00 +37°C° 0 mm 3 m/S 730 mmHg 30%
    19:00 +37°C° 0 mm 3 m/S 731 mmHg 33%
    20:00 +36°C° 0 mm 2 m/S 731 mmHg 35%
    21:00 +35°C° 0 mm 2 m/S 731 mmHg 38%
    22:00 +34°C° 0 mm 2 m/S 731 mmHg 39%
    23:00 +34°C° 0 mm 2 m/S 731 mmHg 40%
    Mehr zeigen